DW0268 Weather Reports


Display with metric or nautical units.
time (UTC)temp
F
wind
direction
speed
MPH
gust
MPH
rain 1hr
in
rain 24hr
in
rain mn
in
humidity
%
barometer
mb
20260904020030 87 166 1.0 3.0 0.00 0.00 0.00 74 1016.6
20260904014540 87 166 2.0 4.0 0.00 0.00 0.00 73 1016.3
20260904013032 88 166 0.0 1.0 0.00 0.00 0.00 72 1016.1
20260904011528 89 166 1.0 4.0 0.00 0.00 0.00 70 1016.1
20260904010028 90 166 2.0 4.0 0.00 0.00 0.00 68 1016.0
20260904004528 91 166 3.0 5.0 0.00 0.00 0.00 66 1015.8
20260904003028 92 166 0.0 2.0 0.00 0.00 0.00 66 1015.7
20260904001526 93 166 4.0 5.0 0.00 0.00 0.00 64 1015.5
20260904000026 95 165 0.0 2.0 0.00 0.00 0.00 65 1015.6
20260903234524 96 165 1.0 3.0 0.00 0.00 0.00 57 1015.5
20260903233024 96 166 2.0 3.0 0.00 0.00 0.00 57 1015.4
20260903231523 97 161 2.0 5.0 0.00 0.00 0.00 57 1015.3
20260903230042 97 163 3.0 6.0 0.00 0.00 0.00 55 1015.3
20260903224527 97 128 2.0 6.0 0.00 0.00 0.00 56 1015.3
20260903223021 97 186 4.0 6.0 0.00 0.00 0.00 56 1015.4
20260903221521 97 192 4.0 6.0 0.00 0.00 0.00 57 1015.4
20260903220020 96 196 5.0 9.0 0.00 0.00 0.00 56 1015.4
20260903214535 97 199 7.0 11.0 0.00 0.00 0.00 55 1015.4
20260903213021 97 186 4.0 7.0 0.00 0.00 0.00 54 1015.5
20260903211516 97 227 5.0 9.0 0.00 0.00 0.00 55 1015.6
20260903210014 98 213 3.0 10.0 0.00 0.00 0.00 53 1015.8
20260903204512 98 150 3.0 9.0 0.00 0.00 0.00 55 1016.0
20260903203010 97 217 6.0 12.0 0.00 0.00 0.00 52 1016.0
20260903201506 98 196 6.0 9.0 0.00 0.00 0.00 53 1016.3
20260903200006 97 199 5.0 13.0 0.00 0.00 0.00 52 1016.5
20260903194502 97 235 6.0 11.0 0.00 0.00 0.00 55 1016.6
20260903193118 97 239 5.0 11.0 0.00 0.00 0.00 56 1016.8
20260903191606 97 220 9.0 12.0 0.00 0.00 0.00 56 1017.0
20260903184554 96 191 6.0 19.0 0.00 0.00 0.00 54 1017.1
20260903183052 96 188 8.0 12.0 0.00 0.00 0.00 57 1017.1
20260903181557 96 207 8.0 12.0 0.00 0.00 0.00 58 1017.4
20260903180058 95 190 5.0 12.0 0.00 0.00 0.00 59 1017.5
20260903174546 95 245 8.0 14.0 0.00 0.00 0.00 60 1017.7
20260903173052 96 155 4.0 12.0 0.00 0.00 0.00 59 1017.7
20260903171542 95 168 2.0 9.0 0.00 0.00 0.00 60 1017.9
20260903170118 95 255 5.0 9.0 0.00 0.00 0.00 60 1018.2
20260903164539 95 154 1.0 4.0 0.00 0.00 0.00 62 1018.3
20260903163032 93 171 4.0 9.0 0.00 0.00 0.00 65 1018.4
20260903161529 92 267 3.0 6.0 0.00 0.00 0.00 65 1018.4
20260903160030 92 267 1.0 3.0 0.00 0.00 0.00 66 1018.5
20260903154519 92 237 2.0 4.0 0.00 0.00 0.00 67 1018.4
20260903153014 91 262 2.0 4.0 0.00 0.00 0.00 70 1018.4
20260903151511 90 254 0.0 2.0 0.00 0.00 0.00 72 1018.5
20260903150011 88 230 1.0 4.0 0.00 0.00 0.00 74 1018.5
20260903144504 87 217 1.0 5.0 0.00 0.00 0.00 78 1018.5
20260903143101 86 210 1.0 4.0 0.00 0.00 0.00 79 1018.5
20260903141556 84 200 1.0 5.0 0.00 0.00 0.00 81 1018.5
20260903140059 83 238 2.0 4.0 0.00 0.00 0.00 83 1018.6
20260903134553 82 255 3.0 7.0 0.00 0.00 0.00 84 1018.7
20260903133048 80 241 3.0 6.0 0.00 0.00 0.00 88 1018.7
20260903131547 79 223 2.0 6.0 0.00 0.00 0.00 89 1018.7
20260903130048 78 194 2.0 4.0 0.00 0.00 0.00 90 1018.7
20260903124545 76 144 1.0 2.0 0.00 0.00 0.00 91 1018.6
20260903123044 76 144 0.0 2.0 0.00 0.00 0.00 91 1018.5
20260903121543 75 144 1.0 3.0 0.00 0.00 0.00 91 1018.5
20260903120048 75 144 0.0 0.0 0.00 0.00 0.00 91 1018.3
20260903114600 75 144 1.0 2.0 0.00 0.00 0.00 90 1018.2
20260903113040 75 144 0.0 0.0 0.00 0.00 0.00 90 1018.2
20260903111538 75 144 0.0 2.0 0.00 0.00 0.00 90 1018.1
20260903110037 76 144 0.0 1.0 0.00 0.00 0.00 90 1018.0
20260903104536 76 144 0.0 1.0 0.00 0.00 0.00 89 1017.8
20260903103034 76 144 0.0 2.0 0.00 0.00 0.00 89 1017.8
20260903101531 76 144 0.0 2.0 0.00 0.00 0.00 89 1017.6
20260903100033 76 142 1.0 2.0 0.00 0.00 0.00 89 1017.6
20260903094537 76 140 1.0 3.0 0.00 0.00 0.00 89 1017.5
20260903093042 77 140 0.0 2.0 0.00 0.00 0.00 88 1017.6
20260903091527 77 140 1.0 2.0 0.00 0.00 0.00 87 1017.5
20260903090028 78 139 1.0 3.0 0.00 0.00 0.00 86 1017.4
20260903084531 78 140 2.0 4.0 0.00 0.00 0.00 86 1017.3
20260903083024 77 145 0.0 2.0 0.00 0.00 0.00 87 1017.4
20260903081523 77 143 1.0 3.0 0.00 0.00 0.00 87 1017.2
20260903080023 77 138 0.0 2.0 0.00 0.00 0.00 88 1017.1
20260903074522 77 138 1.0 2.0 0.00 0.00 0.00 88 1017.2
20260903073122 77 138 0.0 1.0 0.00 0.00 0.00 87 1017.2
20260903071520 78 137 0.0 3.0 0.00 0.00 0.00 87 1017.2
20260903070021 78 136 1.0 3.0 0.00 0.00 0.00 87 1017.3
20260903064515 79 129 2.0 4.0 0.00 0.00 0.00 86 1017.2
20260903063011 79 115 0.0 2.0 0.00 0.00 0.00 85 1017.4
20260903061511 79 115 1.0 3.0 0.00 0.00 0.00 85 1017.5
20260903060013 80 117 2.0 4.0 0.00 0.00 0.00 84 1017.4
20260903054510 80 118 2.0 3.0 0.00 0.00 0.00 84 1017.4
20260903053004 80 120 2.0 4.0 0.00 0.00 0.00 83 1017.6
20260903051503 81 115 2.0 4.0 0.00 0.00 0.00 82 1017.6
20260903050059 82 115 3.0 4.0 0.00 0.00 0.00 80 1017.5
20260903044602 82 119 2.0 3.0 0.00 0.00 0.00 79 1017.4
20260903043057 82 145 1.0 3.0 0.00 0.00 0.00 79 1017.5
20260903041556 82 145 0.0 1.0 0.00 0.00 0.00 79 1017.5
20260903040057 83 145 0.0 0.0 0.00 0.00 0.00 77 1017.5
20260903034559 84 145 0.0 0.0 0.00 0.00 0.00 75 1017.5
20260903033055 85 145 0.0 2.0 0.00 0.00 0.00 74 1017.5
20260903031555 85 145 1.0 3.0 0.00 0.00 0.00 74 1017.5
20260903030055 85 145 1.0 3.0 0.00 0.00 0.00 74 1017.6
20260903024554 85 145 1.0 3.0 0.00 0.00 0.00 74 1017.5
20260903023055 86 145 1.0 3.0 0.00 0.00 0.00 73 1017.5
20260903021554 86 144 1.0 3.0 0.00 0.00 0.00 72 1017.4